Location: Pl�tzky
(52.0521°N, 11.8020°E)
Time: 22:08:01
(UTC+00:00)

Cosmos 1400 Rocket - Pass Details

Date: 22 November 2019
Orbit: 522 x 568 km, 81.2° (Epoch: 10 December)

Event Time Altitude Azimuth Distance (km) Brightness Sun altitude
Rises 17:39:38 0° 185° (S) 2,756 6.5 -22.0°
Reaches altitude 10° 17:41:49 10° 183° (S) 1,866 5.6 -22.3°
Enters shadow 17:44:42 43° 169° (SSE) 802 3.5 -22.7°
